TimeCST,TemperatureF,Dew PointF,Humidity,Sea Level PressureIn,VisibilityMPH,Wind Direction,Wind SpeedMPH,Gust SpeedMPH,PrecipitationIn,Events,Conditions,WindDirDegrees,DateUTC
12:53 AM,53.1,52.0,96,30.23,10.0,Calm,Calm,-,N/A,Fog,Patches of Fog,0,2013-12-01 06:53:00
1:53 AM,53.1,51.1,93,30.22,10.0,ESE,3.5,-,N/A,Fog,Patches of Fog,110,2013-12-01 07:53:00
2:53 AM,50.0,50.0,100,30.22,10.0,NE,3.5,-,N/A,Fog,Patches of Fog,50,2013-12-01 08:53:00
3:53 AM,51.1,51.1,100,30.24,10.0,Calm,Calm,-,N/A,,Mostly Cloudy,0,2013-12-01 09:53:00
4:53 AM,53.1,52.0,96,30.22,10.0,East,3.5,-,N/A,,Mostly Cloudy,90,2013-12-01 10:53:00
5:53 AM,54.0,52.0,93,30.20,10.0,ESE,5.8,-,N/A,,Scattered Clouds,120,2013-12-01 11:53:00
6:53 AM,54.0,52.0,93,30.21,10.0,ESE,5.8,-,N/A,,Mostly Cloudy,110,2013-12-01 12:53:00
7:53 AM,55.9,53.1,90,30.22,10.0,ESE,5.8,-,N/A,,Overcast,110,2013-12-01 13:53:00
8:53 AM,57.9,55.0,90,30.23,10.0,ESE,3.5,-,N/A,,Overcast,110,2013-12-01 14:53:00
9:53 AM,61.0,55.9,83,30.23,10.0,ESE,4.6,-,N/A,,Overcast,120,2013-12-01 15:53:00
10:53 AM,64.0,57.0,78,30.21,10.0,SE,6.9,-,N/A,,Overcast,140,2013-12-01 16:53:00
11:53 AM,66.9,57.9,73,30.18,10.0,SSE,5.8,-,N/A,,Overcast,150,2013-12-01 17:53:00
12:53 PM,70.0,57.9,65,30.14,10.0,SSE,8.1,-,N/A,,Overcast,150,2013-12-01 18:53:00
1:53 PM,70.0,57.9,65,30.11,10.0,SSE,5.8,-,N/A,,Overcast,160,2013-12-01 19:53:00
2:53 PM,70.0,57.9,65,30.09,10.0,South,9.2,-,N/A,,Overcast,170,2013-12-01 20:53:00
3:53 PM,69.1,57.9,68,30.07,10.0,South,10.4,-,N/A,,Mostly Cloudy,180,2013-12-01 21:53:00
4:53 PM,66.9,57.9,73,30.06,10.0,SSE,6.9,-,N/A,,Mostly Cloudy,160,2013-12-01 22:53:00
5:53 PM,64.9,57.9,78,30.05,10.0,SSE,6.9,-,N/A,,Mostly Cloudy,160,2013-12-01 23:53:00
6:53 PM,64.0,57.0,78,30.03,10.0,SSE,5.8,-,N/A,,Mostly Cloudy,160,2013-12-02 00:53:00
7:53 PM,63.0,57.9,84,30.03,10.0,South,8.1,-,N/A,,Mostly Cloudy,170,2013-12-02 01:53:00
8:53 PM,62.1,57.9,86,30.03,10.0,SSE,5.8,-,N/A,,Mostly Cloudy,160,2013-12-02 02:53:00
9:53 PM,63.0,59.0,87,30.01,10.0,South,8.1,-,N/A,,Mostly Cloudy,170,2013-12-02 03:53:00
10:53 PM,63.0,59.0,87,29.99,10.0,South,8.1,-,N/A,,Mostly Cloudy,190,2013-12-02 04:53:00
11:53 PM,63.0,59.0,87,29.97,10.0,South,5.8,-,N/A,,Mostly Cloudy,190,2013-12-02 05:53:00